AFR722 LFPG-FZAA

Flight info

Callsign AFR722
Flight time N/A
Altitude 41000
Route ERIXU6H ERIXU DCT ETAMO DCT ADEKA DCT MOKDI DCT MEN DCT AMLIR DCT FJR UM731 DIVKO DCT BALEN DCT CSO UM2 DJA UB730 IKTAV/N0483F410 UB730 DIR UM731 FL UA403 VONTI DCT TUSOM TUSOM1A
Aircraft A359/H-SDE2E3GHIJ3J4J5LM1ORWXY/LB1D1

Departure

Time N/A
Airport Charles de Gaulle International Airport (LFPG)

Arrival

Time 2026-04-28 00:38
Airport Ndjili International Airport (FZAA)
Time Latitude Longitude Altitude Speed Heading
2026-04-28 00:09 -1.89438 15.46527 40998 ft 490 kts 164°
2026-04-28 00:10 -1.92757 15.47308 40953 ft 489 kts 163°
2026-04-28 00:10 -1.99399 15.48882 40949 ft 489 kts 163°
2026-04-28 00:11 -2.06018 15.50456 40946 ft 489 kts 163°
2026-04-28 00:11 -2.12601 15.52023 40950 ft 489 kts 163°
2026-04-28 00:12 -2.19235 15.53602 40951 ft 489 kts 163°
2026-04-28 00:12 -2.22553 15.54392 40698 ft 487 kts 164°
2026-04-28 00:12 -2.25846 15.55176 40098 ft 485 kts 164°
2026-04-28 00:12 -2.29108 15.55954 39284 ft 490 kts 164°
2026-04-28 00:13 -2.32485 15.56759 38438 ft 495 kts 165°
2026-04-28 00:13 -2.35801 15.57549 37713 ft 495 kts 165°
2026-04-28 00:13 -2.39147 15.58345 37047 ft 493 kts 165°
2026-04-28 00:13 -2.42478 15.59138 36400 ft 492 kts 165°
2026-04-28 00:14 -2.45809 15.59932 35731 ft 492 kts 165°
2026-04-28 00:14 -2.49137 15.60725 35169 ft 489 kts 165°
2026-04-28 00:14 -2.52457 15.61515 34653 ft 486 kts 165°
2026-04-28 00:14 -2.55698 15.62287 34130 ft 483 kts 165°
2026-04-28 00:15 -2.58968 15.63066 33593 ft 480 kts 165°
2026-04-28 00:15 -2.62208 15.63838 33052 ft 476 kts 165°
2026-04-28 00:15 -2.65413 15.64602 32548 ft 472 kts 165°
2026-04-28 00:15 -2.68596 15.65360 32033 ft 468 kts 165°
2026-04-28 00:16 -2.71756 15.66113 31537 ft 465 kts 165°
2026-04-28 00:16 -2.74894 15.66861 31037 ft 462 kts 165°
2026-04-28 00:16 -2.78016 15.67606 30554 ft 459 kts 165°
2026-04-28 00:16 -2.81115 15.68345 30054 ft 456 kts 166°
2026-04-28 00:17 -2.84153 15.69069 29527 ft 452 kts 166°
2026-04-28 00:17 -2.87235 15.69804 29018 ft 448 kts 166°
2026-04-28 00:17 -2.90215 15.70514 28539 ft 443 kts 166°
2026-04-28 00:17 -2.93198 15.71225 28067 ft 439 kts 166°
2026-04-28 00:18 -2.96162 15.71933 27582 ft 435 kts 166°
2026-04-28 00:18 -2.99095 15.72632 27107 ft 432 kts 166°
2026-04-28 00:18 -3.02006 15.73326 26630 ft 428 kts 166°
2026-04-28 00:18 -3.04903 15.74017 26158 ft 425 kts 166°
2026-04-28 00:19 -3.07766 15.74699 25687 ft 422 kts 166°
2026-04-28 00:19 -3.10620 15.75380 25204 ft 419 kts 166°
2026-04-28 00:19 -3.13441 15.76053 24742 ft 416 kts 166°
2026-04-28 00:19 -3.16255 15.76724 24259 ft 414 kts 166°
2026-04-28 00:20 -3.19051 15.77391 23769 ft 412 kts 166°
2026-04-28 00:20 -3.21831 15.78055 23247 ft 410 kts 166°
2026-04-28 00:20 -3.24561 15.78706 22748 ft 406 kts 166°
2026-04-28 00:20 -3.27297 15.79359 22263 ft 402 kts 166°
2026-04-28 00:21 -3.30011 15.80006 21783 ft 398 kts 166°
2026-04-28 00:21 -3.32693 15.80646 21310 ft 394 kts 166°
2026-04-28 00:21 -3.35353 15.81281 20834 ft 390 kts 166°
2026-04-28 00:21 -3.37977 15.81907 20374 ft 387 kts 166°
2026-04-28 00:22 -3.40597 15.82532 19907 ft 384 kts 166°
2026-04-28 00:22 -3.43155 15.83143 19451 ft 381 kts 167°
2026-04-28 00:22 -3.45755 15.83763 18976 ft 378 kts 167°
2026-04-28 00:22 -3.48283 15.84367 18541 ft 376 kts 167°
2026-04-28 00:23 -3.50823 15.84973 18044 ft 373 kts 167°
2026-04-28 00:23 -3.53340 15.85574 17560 ft 370 kts 167°
2026-04-28 00:23 -3.55834 15.86169 17111 ft 365 kts 166°
2026-04-28 00:23 -3.58289 15.86755 16660 ft 361 kts 166°
2026-04-28 00:24 -3.60724 15.87336 16220 ft 357 kts 166°
2026-04-28 00:24 -3.63108 15.87906 15777 ft 354 kts 166°
2026-04-28 00:24 -3.65490 15.88474 15342 ft 350 kts 166°
2026-04-28 00:24 -3.67855 15.89039 14906 ft 347 kts 166°
2026-04-28 00:25 -3.70201 15.89599 14475 ft 344 kts 166°
2026-04-28 00:25 -3.72515 15.90152 14050 ft 340 kts 166°
2026-04-28 00:25 -3.74816 15.90701 13597 ft 337 kts 166°
2026-04-28 00:25 -3.77086 15.91241 13165 ft 333 kts 166°
2026-04-28 00:26 -3.79341 15.91539 12674 ft 331 kts 180°
2026-04-28 00:26 -3.81617 15.91085 12150 ft 331 kts 202°
2026-04-28 00:26 -3.83628 15.90036 11717 ft 328 kts 210°
2026-04-28 00:26 -3.85584 15.88873 11269 ft 325 kts 210°
2026-04-28 00:27 -3.87520 15.87722 10865 ft 322 kts 209°
2026-04-28 00:27 -3.89439 15.86588 10506 ft 318 kts 209°
2026-04-28 00:27 -3.91308 15.85487 10366 ft 305 kts 209°
2026-04-28 00:27 -3.93104 15.84431 10242 ft 293 kts 208°
2026-04-28 00:28 -3.94832 15.83417 10075 ft 284 kts 208°
2026-04-28 00:28 -3.96534 15.82420 9780 ft 285 kts 208°
2026-04-28 00:28 -3.98296 15.81391 9533 ft 298 kts 208°
2026-04-28 00:28 -4.00089 15.80342 9392 ft 297 kts 208°
2026-04-28 00:29 -4.01866 15.79300 8893 ft 297 kts 208°
2026-04-28 00:29 -4.03659 15.78250 8419 ft 297 kts 208°
2026-04-28 00:29 -4.05409 15.77224 8057 ft 294 kts 208°
2026-04-28 00:29 -4.07166 15.76195 7717 ft 291 kts 208°
2026-04-28 00:30 -4.08909 15.75174 7380 ft 289 kts 208°
2026-04-28 00:30 -4.10650 15.74154 7043 ft 288 kts 208°
2026-04-28 00:30 -4.12380 15.73141 6707 ft 286 kts 208°
2026-04-28 00:30 -4.14097 15.72134 6355 ft 285 kts 208°
2026-04-28 00:31 -4.15785 15.71145 6004 ft 283 kts 208°
2026-04-28 00:31 -4.17481 15.70152 5665 ft 282 kts 208°
2026-04-28 00:31 -4.19170 15.69163 5313 ft 280 kts 209°
2026-04-28 00:31 -4.20846 15.68181 5055 ft 277 kts 209°
2026-04-28 00:32 -4.22465 15.67232 4964 ft 261 kts 209°
2026-04-28 00:32 -4.23963 15.66320 4971 ft 243 kts 214°
2026-04-28 00:32 -4.25116 15.65193 4974 ft 220 kts 231°
2026-04-28 00:32 -4.25971 15.64011 4991 ft 203 kts 235°
2026-04-28 00:33 -4.26749 15.62835 4899 ft 202 kts 235°
2026-04-28 00:33 -4.27523 15.61659 4653 ft 202 kts 236°
2026-04-28 00:33 -4.28283 15.60472 4349 ft 202 kts 236°
2026-04-28 00:33 -4.29042 15.59290 4065 ft 201 kts 236°
2026-04-28 00:34 -4.29783 15.58141 3807 ft 189 kts 237°
2026-04-28 00:34 -4.30475 15.57065 3554 ft 179 kts 237°
2026-04-28 00:34 -4.31135 15.56036 3344 ft 178 kts 237°
2026-04-28 00:34 -4.31803 15.54994 3125 ft 177 kts 237°
2026-04-28 00:35 -4.32467 15.53959 2882 ft 176 kts 237°
2026-04-28 00:35 -4.33128 15.52927 2665 ft 175 kts 237°
2026-04-28 00:35 -4.33780 15.51911 2447 ft 169 kts 237°
2026-04-28 00:35 -4.34398 15.50948 2227 ft 158 kts 237°
2026-04-28 00:36 -4.34968 15.50060 2044 ft 148 kts 237°
2026-04-28 00:36 -4.35509 15.49216 1861 ft 141 kts 237°
2026-04-28 00:36 -4.35864 15.48663 1752 ft 139 kts 237°
2026-04-28 00:36 -4.36562 15.47580 1508 ft 139 kts 237°
2026-04-28 00:37 -4.36912 15.47037 1368 ft 139 kts 237°
2026-04-28 00:37 -4.37425 15.46225 1157 ft 135 kts 238°
2026-04-28 00:37 -4.37936 15.45433 1039 ft 133 kts 238°
2026-04-28 00:37 -4.38460 15.44606 1037 ft 80 kts 236°
2026-04-28 00:38 -4.38630 15.44351 1037 ft 50 kts 237°
2026-04-28 00:38 -4.38787 15.44109 1034 ft 28 kts 237°
2026-04-28 00:38 -4.38802 15.44093 1034 ft 1 kts 208°
2026-04-28 00:38 -4.38832 15.44094 1033 ft 9 kts 166°
2026-04-28 00:39 -4.38899 15.44131 1035 ft 8 kts 148°
2026-04-28 00:39 -4.38960 15.44180 1037 ft 7 kts 115°
2026-04-28 00:39 -4.38959 15.44195 1037 ft 3 kts 73°
2026-04-28 00:39 -4.38926 15.44243 1037 ft 14 kts 57°
2026-04-28 00:40 -4.38858 15.44347 1039 ft 18 kts 57°
2026-04-28 00:40 -4.38843 15.44370 1040 ft 6 kts 57°
2026-04-28 00:40 -4.38800 15.44437 1039 ft 14 kts 62°
2026-04-28 00:40 -4.38810 15.44477 1039 ft 7 kts 130°
2026-04-28 00:41 -4.38821 15.44483 1039 ft 0 kts 148°
2026-04-28 00:41 -4.38823 15.44484 1039 ft 2 kts 148°
2026-04-28 00:41 -4.38831 15.44490 1039 ft 0 kts 148°
2026-04-28 00:42 -4.38830 15.44488 1039 ft 0 kts 147°